Regional Weather Roundup
Issued by NWS

Home | Current Version | Previous Version | Graphics & Text | Print | Product List | Glossary On
Versions: 1 2 3 4 5 6 7 8 9 10 11 12 13 14 15 16 17 18 19 20 21 22 23 24 25 26 27 28 29 30 31 32 33 34 35 36 37 38 39 40 41 42 43 44 45 46 47 48 49 50
000
ASUS43 KBIS 021310
RWRND

NORTH DAKOTA REGIONAL WEATHER ROUNDUP
NATIONAL WEATHER SERVICE BISMARCK ND
800 AM CDT THU JUL 02 2015

NOTE: "FAIR" INDICATES FEW OR NO CLOUDS BELOW 12,000 FEET WITH NO
SIGNIFICANT WEATHER AND/OR OBSTRUCTIONS TO VISIBILITY.


NDZ001>003-009>011-017-021400-
NORTHWEST NORTH DAKOTA

CITY           SKY/WX    TMP DP  RH WIND       PRES   REMARKS
WILLISTON      MOSUNNY   59  54  83 CALM      30.03R
MINOT          MOSUNNY   64  60  87 W6        29.97R FOG
MINOT AFB      MOSUNNY   63  63 100 NW5       29.96S FOG
$$

NDZ018>021-031>035-040>046-021400-
SOUTHWEST NORTH DAKOTA

CITY           SKY/WX    TMP DP  RH WIND       PRES   REMARKS
BISMARCK       MOSUNNY   65  63  93 N3        29.98R FOG
DICKINSON      SUNNY     61  58  90 W7        30.02S FOG
GARRISON         N/A     62  61  96 NW8       29.98S
HETTINGER ARPT MOSUNNY   62  59  90 NW10      30.05R FOG
$$

NDZ004>008-012>016-024-026-027-054-021400-
NORTHEAST NORTH DAKOTA

CITY           SKY/WX    TMP DP  RH WIND       PRES   REMARKS
GRAND FORKS    MOSUNNY   60  56  86 S9        29.95F
GRND FRKS AFB  SUNNY     62  58  88 S8        29.96S
DEVILS LAKE    CLOUDY    66  61  82 S6        29.94S
$$

NDZ022-023-025-028>030-036>039-047>053-021400-
SOUTHEAST NORTH DAKOTA

CITY           SKY/WX    TMP DP  RH WIND       PRES   REMARKS
FARGO          SUNNY     61  54  77 S8        29.99R
JAMESTOWN      CLOUDY    64  60  87 S6        29.96S
$$



USA.gov is the U.S. government's official web portal to all federal, state and local government web resources and services.